Greybull, WY

11:15 AM MST on February 20, 2018 (GMT -0700)
South Big Horn County

Weather History for KGEY - January, 2013

Change the Weather History Date:

Saturday, January 5, 2013

  Actual Average Record
Temperature  
Mean Temperature 5 °F 16 °F  
Max Temperature 20 °F 28 °F 48 °F (2008)
Min Temperature -10 °F 4 °F -30 °F (2017)
Degree Days  
Heating Degree Days 60 49  
Month to date heating degree days 295 245  
Since 1 July heating degree days 3274 3568  
Cooling Degree Days 0 0  
Month to date cooling degree days 0 0  
Year to date cooling degree days 0 0  
Moisture  
Dew Point -4 °F    
Average Humidity 72    
Maximum Humidity 87    
Minimum Humidity 56    
Precipitation  
Precipitation 0.00 in 0.01 in 0.25 in (1982)
Month to date precipitation T 0.05  
Year to date precipitation T 0.05  
Sea Level Pressure  
Sea Level Pressure 30.53 in    
Wind  
Wind Speed 2 mph (WNW)    
Max Wind Speed 14 mph    
Max Gust Speed 60 mph    
Visibility 10 miles    
Events      
T = Trace of Precipitation, MM = Missing Value Source: NWS Daily Summary

Daily Weather History Graph

Daily Weather History Graph

Search for Another Location

Airport or City:

Trip Planner

Search our weather history database for the weather conditions in past years. The results will help you decide how hot, cold, wet, or windy it might be!

Date:

Astronomy

Jan. 05, 2013 Rise Set
Actual Time 7:48 AM MST 4:47 PM MST
Civil Twilight 7:15 AM MST 5:20 PM MST
Nautical Twilight 6:39 AM MST 5:57 PM MST
Astronomical Twilight 6:03 AM MST 6:32 PM MST
Moon 12:50 AM MST (1/5) 11:46 AM MST (1/5)
Length of Visible Light 10h 04m
Length of Day
8h 58m
Last Quarter, 43% of the Moon is Illuminated
Jan 5
Last Quarter
Jan 11
New
Jan 18
First Quarter
Jan 26
Full
Feb 3
Last Quarter

Hourly Weather History & Observations

Time (MST) Temp. Windchill Dew Point Humidity Pressure Visibility Wind Dir Wind Speed Gust Speed Precip Events Conditions
12:53 AM -5.1 °F -20.4 °F -9.0 °F 83% 30.43 in 10.0 mi NW 8.1 mph - N/A   Clear
1:53 AM -4.0 °F -14.6 °F -9.0 °F 79% 30.42 in 10.0 mi SSE 4.6 mph - N/A   Clear
2:53 AM -7.1 °F - -11.9 °F 79% 30.45 in 10.0 mi Calm Calm - N/A   Clear
3:53 AM -7.1 °F -19.9 °F -11.0 °F 83% 30.47 in 10.0 mi ESE 5.8 mph - N/A   Clear
4:53 AM -4.0 °F -14.6 °F -8.0 °F 83% 30.50 in 10.0 mi SSE 4.6 mph - N/A   Clear
6:53 AM -9.9 °F - -14.1 °F 82% 30.57 in 10.0 mi Calm Calm - N/A   Clear
7:53 AM -8.0 °F -19.2 °F -13.0 °F 79% 30.59 in 10.0 mi WNW 4.6 mph - N/A   Clear
8:53 AM -5.1 °F -15.8 °F -9.9 °F 80% 30.61 in 10.0 mi West 4.6 mph - N/A   Clear
9:53 AM -0.0 °F - -4.0 °F 83% 30.61 in 10.0 mi Calm Calm - N/A   Clear
10:53 AM 3.9 °F - -2.0 °F 76% 30.62 in 10.0 mi Calm Calm - N/A   Clear
11:53 AM 8.1 °F - 1.0 °F 73% 30.58 in 10.0 mi Calm Calm - N/A   Clear
12:53 PM 12.9 °F - 3.0 °F 65% 30.54 in 10.0 mi Calm Calm - N/A   Clear
1:53 PM 17.1 °F - 5.0 °F 59% 30.51 in 10.0 mi Calm Calm - N/A   Clear
2:53 PM 19.9 °F 14.9 °F 6.1 °F 55% 30.51 in 10.0 mi NNW 3.5 mph - N/A   Clear
3:53 PM 18.0 °F - 6.1 °F 60% 30.51 in 10.0 mi Calm Calm - N/A   Clear
4:53 PM 12.9 °F 6.9 °F 3.9 °F 67% 30.51 in 10.0 mi North 3.5 mph - N/A   Clear
5:53 PM 7.0 °F - -0.0 °F 73% 30.54 in 10.0 mi Calm Calm - N/A   Clear
6:53 PM 8.1 °F - 1.9 °F 76% 30.54 in 10.0 mi Calm Calm - N/A   Clear
7:53 PM -0.9 °F -11.0 °F -5.1 °F 83% 30.56 in 10.0 mi West 4.6 mph - N/A   Clear
8:53 PM -2.0 °F -10.1 °F -6.0 °F 83% 30.55 in 10.0 mi West 3.5 mph - N/A   Clear
9:53 PM -2.0 °F - -6.0 °F 83% 30.51 in 10.0 mi North - - N/A   Clear
10:53 PM -0.9 °F -8.9 °F -5.1 °F 83% 30.48 in 9.0 mi East 3.5 mph - N/A   Clear
11:53 PM -4.0 °F - -9.0 °F 79% 30.47 in 10.0 mi Calm Calm - N/A   Clear